Theta_e
338 339 338 339 337 333 331 333 335 337 339 340 340 340 341 342 342 342 342 339 337 338 340 340 338 338 339 342 345 348 349 349 351 353 353 351 348 347 347 348 348 347
339 339 339 339 339 336 333 332 333 334 335 336 336 336 337 338 338 337 336 334 333 335 337 336 338 342 345 348 349 350 351 351 352 353 353 352 348 345 346 348 348 348
339 339 339 339 339 337 336 335 336 337 336 336 334 331 330 329 329 328 328 328 329 332 335 339 344 346 348 349 349 348 348 348 350 350 350 350 347 346 347 348 349 349
339 339 339 339 339 338 336 336 337 340 340 339 336 330 326 325 325 326 327 330 334 339 342 346 348 348 349 349 348 347 346 346 347 348 348 348 348 348 348 349 349 349
338 339 339 339 340 339 337 336 337 340 341 340 337 332 329 329 331 333 336 341 345 347 349 350 350 350 349 348 347 346 347 348 349 349 349 350 350 350 351 350 351 351
338 339 339 339 339 339 339 337 337 340 341 340 338 335 335 337 340 343 346 349 350 350 351 350 350 350 349 349 349 349 350 350 351 352 353 353 353 352 351 352 352 352
338 339 339 339 340 340 339 339 339 340 341 340 339 339 342 345 347 349 349 350 350 350 352 352 351 351 352 352 352 352 353 353 354 354 352 351 350 349 347 348 349 349
338 339 338 339 340 340 340 340 340 340 341 340 341 344 348 350 350 350 350 349 350 352 353 353 353 354 354 354 354 354 355 354 354 353 351 349 348 347 345 343 343 342
338 339 338 339 340 340 341 342 341 341 340 341 344 349 350 350 350 350 350 351 352 353 354 354 354 355 355 355 355 354 354 353 352 351 349 347 344 341 338 336 333 332
339 340 339 339 339 339 341 342 341 340 340 344 349 351 351 351 351 352 352 353 354 355 355 355 355 355 354 354 352 351 348 345 343 340 337 334 331 329 327 326 325 325
340 340 340 339 340 340 340 343 342 340 343 349 351 351 352 352 353 353 354 355 355 355 355 355 353 351 348 344 340 337 333 330 328 326 325 324 324 324 324 324 324 325
340 340 340 340 339 339 341 343 343 343 347 352 353 353 354 354 354 355 355 356 355 354 352 347 342 337 332 329 326 325 324 323 323 323 323 324 325 326 327 327 327 326
341 341 340 340 339 340 342 344 346 347 351 354 354 354 354 355 356 356 356 355 352 346 339 332 328 325 324 323 323 323 323 324 325 326 327 327 327 328 327 327 327 326
341 341 340 341 341 341 343 346 348 351 354 355 355 356 356 357 357 356 354 349 340 331 325 323 323 324 323 324 324 324 325 327 328 328 328 328 327 327 326 326 326 325
341 341 342 341 342 343 346 349 351 354 356 356 356 357 357 357 356 353 346 335 326 323 323 324 324 324 325 326 326 328 328 328 328 328 327 327 327 326 326 325 325 325
341 343 342 342 344 346 348 351 354 355 357 356 357 357 357 355 351 342 331 324 322 323 324 324 325 326 327 328 328 329 328 327 327 327 326 326 326 326 325 325 325 325
343 343 344 344 347 349 351 354 355 356 356 357 357 357 354 349 339 328 323 323 324 325 325 326 327 328 328 328 328 327 327 326 326 326 326 325 325 325 325 325 325 325
344 345 346 347 349 351 354 355 356 357 357 358 357 354 347 336 326 322 323 325 325 327 328 328 329 328 328 327 327 326 326 326 326 325 325 324 324 325 325 325 325 325
345 347 348 349 351 354 354 356 357 357 358 358 354 346 334 324 322 324 325 327 327 329 329 328 328 327 327 326 326 326 326 326 325 324 324 324 324 324 324 324 324 325
346 348 350 351 353 354 354 357 357 358 358 354 345 332 324 322 324 326 327 328 329 329 328 327 327 326 326 326 326 326 326 325 324 324 324 324 324 324 324 324 324 324
348 350 351 353 354 354 356 357 358 358 354 345 331 323 322 325 325 327 329 329 328 327 327 326 326 326 326 326 326 326 325 325 324 324 324 324 324 324 325 325 325 324
349 351 353 353 354 356 357 358 358 354 344 330 323 322 324 326 328 329 329 328 327 327 326 326 326 326 326 325 325 325 325 324 324 325 325 324 324 325 325 326 326 325
352 352 353 355 357 357 358 358 354 343 330 322 323 324 326 327 328 328 328 327 327 327 326 326 326 325 325 325 325 325 324 325 325 325 325 325 325 325 326 326 327 326
353 354 356 357 358 358 357 352 340 328 322 323 324 325 327 328 328 328 327 327 327 326 326 326 325 325 324 324 324 324 324 325 325 325 325 325 325 325 325 325 326 326
355 357 358 358 358 356 348 336 326 322 323 324 325 327 328 328 328 328 327 327 327 326 326 325 324 324 324 323 324 324 324 324 324 325 325 325 325 325 325 325 326 326
357 359 358 356 353 345 332 323 322 323 324 325 326 327 327 327 327 327 327 327 326 325 325 324 323 323 323 323 323 323 324 324 324 324 324 324 324 325 326 327 327 327
Wind_Speed
19 19 19 17 17 16 17 19 20 20 20 20 20 21 22 24 25 26 28 29 29 28 28 28 30 31 30 30 30 31 32 33 35 35 35 36 36 36 34 34 34 36
19 20 20 19 18 17 16 16 17 18 19 20 22 23 25 26 28 29 30 30 30 30 30 31 30 30 29 30 31 32 33 35 36 37 37 37 37 37 35 34 35 35
20 20 20 20 19 18 16 15 16 17 18 20 21 24 25 27 28 28 29 29 30 30 30 29 29 30 31 31 32 32 34 35 36 37 37 37 37 36 34 33 33 32
20 20 19 19 18 17 17 16 17 17 18 20 21 23 25 26 26 27 27 27 28 28 28 29 30 31 31 31 31 31 32 33 33 33 32 32 33 32 30 30 30 29
20 20 19 18 17 17 17 18 18 18 19 20 21 22 23 24 25 25 25 26 26 27 28 29 29 29 29 29 29 29 29 28 28 27 27 28 28 27 27 28 28 28
20 20 19 19 19 18 19 19 19 20 20 21 21 22 22 23 23 24 24 25 26 26 27 27 27 27 26 26 26 26 26 25 25 25 25 25 25 24 24 26 27 28
19 19 20 21 20 20 19 20 21 21 21 21 21 21 22 22 23 23 23 24 25 26 26 26 25 24 24 24 24 25 26 26 26 25 23 22 23 24 24 25 27 30
21 22 22 22 21 20 20 20 21 22 22 21 21 21 22 22 21 21 22 24 26 26 25 24 23 23 24 25 26 27 27 27 27 27 26 25 26 27 27 28 29 30
24 24 23 23 22 21 20 20 20 20 21 20 20 20 20 19 19 20 22 24 25 24 23 23 23 24 26 27 28 28 27 27 27 28 29 29 29 29 30 30 30 30
26 26 25 25 24 22 22 20 19 19 19 19 19 18 17 18 19 20 22 23 24 23 23 23 25 27 28 28 28 27 27 28 28 29 29 30 29 29 28 28 27 27
27 27 27 26 26 25 24 21 20 19 19 18 17 16 17 18 19 20 22 23 23 23 23 25 26 27 27 26 26 26 27 27 27 27 26 26 26 25 24 23 23 23
29 29 27 27 27 26 25 22 20 19 18 17 16 16 17 17 18 20 22 23 22 23 24 25 25 25 25 25 25 24 24 24 24 24 23 23 22 22 21 21 21 20
31 29 28 27 26 26 24 22 19 18 17 16 16 16 16 17 19 21 22 21 22 22 23 23 23 23 23 23 23 23 23 23 22 21 20 20 20 20 20 20 19 19
31 29 27 26 25 24 22 20 18 17 16 16 16 15 16 17 19 20 20 21 22 22 22 22 22 22 22 23 23 22 21 21 20 19 19 19 19 19 20 20 19 18
29 27 26 24 23 22 20 18 17 16 16 15 15 15 16 18 18 19 20 20 20 20 20 20 21 21 22 21 21 19 19 19 19 19 20 20 20 20 20 20 19 18
27 25 24 23 22 20 19 17 16 16 15 14 14 15 16 17 17 18 19 19 19 19 19 19 20 19 19 18 18 18 18 19 20 21 22 22 22 22 21 19 17 16
24 22 22 22 21 19 18 16 16 15 14 13 14 15 15 16 16 16 16 17 17 17 17 17 17 15 15 16 17 19 20 22 22 22 23 23 23 22 20 18 16 15
22 21 22 22 21 19 17 16 15 14 13 13 13 13 14 14 14 14 14 15 15 15 14 14 13 14 16 18 20 21 22 23 23 22 22 22 22 21 19 17 17 16
22 22 22 22 20 18 17 15 14 13 12 13 12 12 12 12 11 11 12 12 12 11 11 12 14 16 18 20 21 22 22 22 22 21 21 21 21 20 18 18 18 17
22 23 23 22 20 18 17 15 13 12 12 11 10 10 9 9 8 9 8 9 9 10 12 14 16 17 19 20 21 21 22 22 21 20 20 21 22 21 19 19 20 20
23 23 23 22 20 18 16 13 12 11 11 9 8 7 6 6 6 6 6 7 9 12 14 14 16 17 18 20 20 21 22 22 20 19 20 21 22 22 22 22 24 23
24 24 23 21 19 16 14 12 11 10 8 6 5 4 3 3 3 4 6 9 11 13 13 13 15 16 18 19 20 21 22 23 22 20 20 21 23 23 23 24 25 24
25 24 22 20 17 14 12 11 10 8 5 4 2 0 2 3 4 6 9 11 12 12 12 12 14 15 17 19 20 20 22 22 22 21 21 22 23 23 23 22 22 23
24 23 20 17 14 12 10 9 6 5 4 3 2 2 3 5 7 9 12 12 11 11 11 12 13 15 17 18 19 19 20 21 21 21 22 22 22 22 22 22 21 20
23 21 18 15 12 10 8 5 4 4 3 4 4 4 6 8 10 12 12 12 11 11 11 12 13 14 16 17 18 18 18 20 20 21 22 23 22 22 21 21 21 22
21 19 16 12 10 8 6 5 4 4 5 6 6 7 9 11 12 12 12 11 11 11 11 12 13 14 15 16 17 16 17 18 19 20 22 23 24 23 23 22 22 23
Wind_Direction
245 246 246 246 247 247 246 246 249 253 257 261 265 269 273 276 279 281 283 287 290 291 295 298 298 298 298 297 297 296 295 295 294 294 292 290 289 286 283 281 279 279
247 248 249 249 250 251 251 251 254 258 263 269 273 275 277 278 280 282 285 287 289 290 293 295 294 295 295 295 296 295 294 293 292 292 290 289 288 285 283 281 281 282
248 250 252 254 255 257 260 261 264 269 275 279 282 282 281 282 284 285 287 289 289 290 291 291 291 293 294 295 296 295 294 294 292 292 291 289 288 286 285 284 283 284
251 254 257 259 263 265 267 269 271 275 281 284 287 287 285 286 287 288 289 290 290 290 290 291 292 294 296 297 297 296 295 295 295 294 293 292 291 288 288 287 287 286
256 259 261 264 268 270 271 273 275 278 281 285 289 289 288 288 289 290 291 291 292 293 294 295 297 299 300 299 297 297 297 297 297 296 296 295 293 291 291 290 290 289
258 262 266 268 270 272 274 276 278 280 282 285 288 289 289 289 290 291 293 296 299 302 303 302 301 300 298 297 298 299 299 299 298 297 296 293 292 295 296 294 294 294
258 263 268 271 272 274 277 278 279 280 281 285 288 290 290 291 293 296 302 306 308 307 303 300 297 297 297 299 300 301 300 299 297 297 297 299 301 304 304 301 299 299
258 263 267 271 275 277 280 280 279 278 279 284 289 291 292 295 299 304 309 309 305 300 296 295 296 299 301 302 302 300 299 298 298 298 301 305 307 307 306 306 305 303
259 263 266 269 274 277 280 281 278 276 278 283 289 292 296 301 304 306 306 302 297 294 293 296 300 303 304 302 301 299 299 300 301 301 302 303 304 304 304 304 304 303
261 264 265 267 270 273 276 278 276 274 277 283 288 291 296 300 301 301 298 295 293 293 296 302 305 305 303 301 301 302 303 303 303 304 305 306 307 307 306 305 304 302
263 265 266 266 266 268 271 275 274 274 278 284 287 290 293 294 294 294 293 292 293 297 303 307 306 304 303 304 306 307 308 308 310 311 312 312 312 313 313 313 312 310
263 265 265 265 264 264 267 271 272 274 279 282 283 284 286 287 289 292 292 294 298 305 309 308 306 307 309 311 314 315 316 318 319 320 320 320 321 322 322 323 322 322
262 263 263 263 262 261 263 266 270 272 274 275 276 278 281 286 290 292 294 300 308 312 311 310 311 314 318 321 324 326 327 328 328 328 329 330 330 330 329 330 330 331
260 260 259 259 258 257 258 261 264 266 267 268 270 276 282 288 292 295 303 310 314 314 314 316 321 325 329 331 333 335 336 337 338 337 337 336 335 335 335 334 335 334
257 255 254 253 253 252 252 255 258 259 262 264 270 279 286 291 297 305 313 316 316 318 321 327 333 336 338 340 342 345 346 346 346 344 342 340 340 341 340 340 339 339
252 250 248 247 246 245 246 249 252 255 259 265 275 284 290 298 307 313 317 319 321 327 333 340 344 345 348 350 354 357 357 356 354 352 349 348 347 348 348 350 353 351
247 244 243 241 238 238 240 244 248 253 259 269 280 289 298 307 313 317 321 325 331 340 347 351 353 357 4 8 10 9 6 4 2 358 354 353 353 353 355 1 6 4
243 240 237 233 231 232 235 240 245 252 263 275 285 296 305 311 316 321 328 336 346 354 359 3 10 19 23 21 18 14 11 7 3 359 359 0 2 4 7 9 8 6
238 235 230 226 226 227 231 237 244 254 269 281 291 302 307 312 321 331 341 352 1 8 17 26 32 32 29 24 19 16 13 9 5 5 9 11 12 13 14 12 8 7
232 229 224 220 220 223 228 235 245 260 274 284 294 301 307 319 334 346 359 12 22 34 42 42 40 36 31 25 20 18 15 11 11 16 22 22 20 19 20 20 16 13
226 221 218 216 216 220 227 236 250 264 274 282 291 298 312 336 355 10 26 43 53 56 54 47 42 38 32 26 24 22 20 19 21 27 31 29 28 29 31 30 24 19
221 217 213 212 214 218 227 240 253 261 268 275 281 296 338 10 33 55 65 70 69 65 58 49 42 38 33 30 29 28 27 30 31 33 34 33 33 35 36 35 27 20
216 213 210 209 212 220 230 241 248 253 257 255 259 357 67 79 90 92 87 81 75 68 60 49 41 38 35 34 35 34 35 38 39 38 38 37 36 36 36 38 34 24
210 209 208 208 212 220 230 236 235 236 232 204 141 105 116 120 109 100 94 86 78 68 59 49 43 41 39 38 39 39 40 43 44 44 44 42 39 37 34 36 38 33
202 202 205 208 212 213 213 215 212 208 191 146 128 134 136 123 112 104 97 89 80 70 61 53 48 44 41 40 41 41 43 46 47 47 47 45 42 40 39 38 39 39
196 198 200 201 202 197 185 181 185 174 149 134 138 145 135 122 114 109 100 91 84 74 66 60 55 49 43 40 39 39 41 45 45 46 47 46 43 42 44 45 45 45